Regional Weather Roundup
Issued by NWS Cleveland, OH

Home | Current Version | Previous Version | Graphics & Text | Print | Product List | Glossary On
Versions: 1 2 3 4 5 6 7 8 9 10 11 12 13 14 15 16 17 18 19 20 21 22 23 24 25 26 27 28 29 30 31 32 33 34 35 36 37 38 39 40 41 42 43 44 45 46 47 48 49 50
000
ASUS41 KCLE 161400
RWRCLE
OHIO REGIONAL WEATHER ROUNDUP
NATIONAL WEATHER SERVICE WILMINGTON, OH
1000 AM EDT WED APR 16 2014

NOTE: "FAIR" INDICATES FEW OR NO CLOUDS BELOW 12,000 FEET WITH NO
SIGNIFICANT WEATHER AND/OR OBSTRUCTIONS TO VISIBILITY.

OHZ001>008-015>018-024>027-034-035-043-044-161500-
   NORTHWEST OHIO

CITY           SKY/WX    TMP DP  RH WIND       PRES   REMARKS
DEFIANCE       SUNNY     35  13  40 SE8       30.43R WCI  29
FINDLAY        SUNNY     32  15  49 SE8       30.43R WCI  25
TOLEDO EXPRESS SUNNY     33  14  45 VRB5      30.44R WCI  29
TOLEDO METCALF SUNNY     34  11  38 S5        30.45R WCI  30
LIMA           SUNNY     34  14  43 SE9       30.42R WCI  27
$$

OHZ009>014-019>023-028>033-038-089-161500-
   NORTHEAST OHIO

CITY           SKY/WX    TMP DP  RH WIND       PRES   REMARKS
CLE-HOPKINS    MOSUNNY   33  15  47 SE3       30.49R
CLE-LAKEFRONT  MOSUNNY   31  14  49 CALM      30.46R
CUY CO. ARPT   MOSUNNY   34  12  40 CALM      30.46R
LORAIN-ELYRIA  SUNNY     33  17  51 S7        30.47R WCI  27
ASHTABULA      SUNNY     29  16  58 SE3       30.47R
AKRON-CANTON   MOSUNNY   32  16  52 CALM      30.45R
WOOSTER        NOT AVBL
MANSFIELD      SUNNY     30  18  60 SE7       30.42R WCI  23
YOUNGSTOWN     MOSUNNY   29  15  56 CALM      30.45R
$$

OHZ042-051>053-060>062-070>072-077>081-161500-
  SOUTHWEST OHIO

CITY           SKY/WX    TMP DP  RH WIND       PRES   REMARKS
CINC-COVINGTON MOSUNNY   36  14  40 E14       30.40S
CINC-LUNKEN    SUNNY     36  15  42 E7        30.44S
HAMILTON       SUNNY     38  14  37 E9        30.44R
DAYTON         NOT AVBL
WRIGHT-PAT AFB SUNNY     35  11  37 E8        30.43R WCI  28
DAYTON GENERAL SUNNY     34  15  46 E8        30.41R WCI  27
WILMINGTON     MOSUNNY   33  15  47 E8        30.42R WCI  26
$$

OHZ036-037-039>041-045>050-054>059-063>069-073>076-082>088-161500-
  CENTRAL AND SOUTHEAST OHIO

CITY           SKY/WX    TMP DP  RH WIND       PRES   REMARKS
COLUMBUS       MOSUNNY   35  19  52 E9        30.44R WCI  28
OSU AIRPORT    SUNNY     33  15  47 E6        30.44R WCI  28
BOLTON FIELD   NOT AVBL
RICKENBACK AFB NOT AVBL
NEWARK         SUNNY     33  19  56 E6        30.44R WCI  28
MARION         SUNNY     31  15  52 E7        30.44R WCI  24
LANCASTER      SUNNY     34  20  56 E8        30.44R WCI  27
ZANESVILLE     SUNNY     32  21  64 E8        30.45R WCI  25
NEW PHILLY     MOSUNNY   31  19  61 SE3       30.47R
$$



USA.gov is the U.S. government's official web portal to all federal, state and local government web resources and services.